This is the latest recevied weather packets stored in our database for station/object KA0EGE. If no packets are shown the sender has not sent any weather packets the latest 10 day(s).
| Time | Temp. | Humidity | Pressure | Rain* | Wind** | Luminosity | Snow |
|---|---|---|---|---|---|---|---|
| 1777674202 | 16.67° C | 99% | 1014 hPa | 0 mm | - | 20 W/m² | - |
| 1777673898 | 16.67° C | 99% | 1014.4 hPa | 0 mm | - | 22 W/m² | - |
| 1777673595 | 16.67° C | 99% | 1014.4 hPa | 0 mm | - | 21 W/m² | - |
| 1777673293 | 16.67° C | 99% | 1014.3 hPa | 0 mm | - | 17 W/m² | - |
| 1777672989 | 16.67° C | 99% | 1014 hPa | 0 mm | - | 24 W/m² | - |
| 1777672686 | 16.67° C | 99% | 1013.7 hPa | 0 mm | - | 30 W/m² | - |
| 1777672382 | 16.67° C | 99% | 1013.5 hPa | 1.27 mm | - | 28 W/m² | - |
| 1777672077 | 16.67° C | 99% | 1013.9 hPa | 1.27 mm | - | 31 W/m² | - |
| 1777671773 | 16.67° C | 99% | 1013.7 hPa | 0 mm | - | 48 W/m² | - |
| 1777671469 | 16.67° C | 99% | 1013.5 hPa | 0 mm | - | 48 W/m² | - |
| 1777671166 | 16.67° C | 99% | 1013.4 hPa | 0 mm | - | 33 W/m² | - |
| 1777670862 | 16.67° C | 99% | 1013.4 hPa | 0 mm | - | 33 W/m² | - |
| 1777670558 | 16.67° C | 99% | 1013.4 hPa | 0 mm | - | 55 W/m² | - |
| 1777670256 | 16.67° C | 99% | 1013.2 hPa | 0 mm | - | 76 W/m² | - |
| 1777669953 | 16.67° C | 99% | 1013.2 hPa | 0 mm | - | 108 W/m² | - |
| 1777669650 | 16.67° C | 99% | 1013.4 hPa | 0 mm | - | 107 W/m² | - |
| 1777669347 | 16.11° C | 99% | 1013.3 hPa | 0 mm | - | 73 W/m² | - |
| 1777669043 | 16.11° C | 99% | 1012.9 hPa | 0 mm | - | 106 W/m² | - |
| 1777668740 | 16.11° C | 99% | 1013.1 hPa | 0 mm | - | 91 W/m² | - |
| 1777668437 | 16.11° C | 99% | 1013.6 hPa | 0 mm | - | 65 W/m² | - |
| 1777668134 | 16.11° C | 99% | 1013.7 hPa | 0 mm | - | 55 W/m² | - |
| 1777667830 | 16.11° C | 99% | 1013.9 hPa | 0 mm | - | 56 W/m² | - |
| 1777667528 | 16.11° C | 99% | 1014.1 hPa | 1.78 mm | - | 73 W/m² | - |
| 1777667224 | 16.11° C | 99% | 1014 hPa | 1.78 mm | - | 83 W/m² | - |
| 1777666921 | 16.11° C | 99% | 1014.3 hPa | 0 mm | - | 86 W/m² | - |
* Rain latest hour (hover to see other rain measurements)
** Current wind speed in m/s (hover to see current wind gust speed)